Wahoo, NE

6:23 PM CDT on April 24, 2017 (GMT -0500)
Wahoo Municipal

Weather History for KAHQ - January, 2013

Change the Weather History Date:

Saturday, January 26, 2013

  Actual Average Record
Temperature  
Mean Temperature 36 °F -  
Max Temperature 52 °F 32 °F 59 °F (2015)
Min Temperature 19 °F 11 °F -11 °F (1991)
Degree Days  
Heating Degree Days 30    
Moisture  
Dew Point 23 °F    
Average Humidity 70    
Maximum Humidity 91    
Minimum Humidity 35    
Precipitation  
Precipitation 0.00 in - - ()
Sea Level Pressure  
Sea Level Pressure 30.12 in    
Wind  
Wind Speed 9 mph (SE)    
Max Wind Speed 18 mph    
Max Gust Speed 21 mph    
Visibility 10 miles    
Events      
Averages and records for this station are not official NWS values.
T = Trace of Precipitation, MM = Missing Value Source: NWS Daily Summary

Daily Weather History Graph

Daily Weather History Graph

Search for Another Location

Airport or City:

Trip Planner

Search our weather history database for the weather conditions in past years. The results will help you decide how hot, cold, wet, or windy it might be!

Date:

Astronomy

Jan. 26, 2013 Rise Set
Actual Time 7:42 AM CST 5:35 PM CST
Civil Twilight 7:13 AM CST 6:05 PM CST
Nautical Twilight 6:39 AM CST 6:38 PM CST
Astronomical Twilight 6:07 AM CST 7:11 PM CST
Moon 5:32 PM CST (1/26) 7:00 AM CST (1/26)
Length of Visible Light 10h 52m
Length of Day
9h 53m
Full, 100% of the Moon is Illuminated
Jan 26
Full
Jan 26
Full
Feb 3
Last Quarter
Feb 10
New
Feb 17
First Quarter

Hourly Weather History & Observations

Time (CST) Temp. Windchill Dew Point Humidity Pressure Visibility Wind Dir Wind Speed Gust Speed Precip Events Conditions
12:15 AM 25.0 °F 16.3 °F 20.1 °F 82% 30.24 in 10.0 mi NE 8.1 mph - N/A   Clear
12:35 AM 24.1 °F 18.2 °F 19.4 °F 82% 30.24 in 10.0 mi NNE 4.6 mph - N/A   Clear
12:55 AM 23.7 °F 17.8 °F 19.0 °F 82% 30.23 in 10.0 mi NNE 4.6 mph - N/A   Clear
1:15 AM 23.0 °F 18.4 °F 18.5 °F 83% 30.24 in 10.0 mi NNE 3.5 mph - N/A   Clear
1:35 AM 22.1 °F 17.4 °F 18.1 °F 85% 30.24 in 10.0 mi NNE 3.5 mph - N/A   Clear
1:55 AM 21.9 °F 15.7 °F 18.0 °F 85% 30.24 in 10.0 mi NE 4.6 mph - N/A   Clear
2:15 AM 22.1 °F 15.9 °F 18.5 °F 86% 30.23 in 10.0 mi NE 4.6 mph - N/A   Clear
2:35 AM 20.8 °F 14.4 °F 17.6 °F 87% 30.24 in 10.0 mi NNE 4.6 mph - N/A   Clear
2:55 AM 21.2 °F 14.9 °F 18.3 °F 89% 30.24 in 10.0 mi NE 4.6 mph - N/A   Clear
3:15 AM 21.0 °F 16.2 °F 18.0 °F 88% 30.23 in 10.0 mi East 3.5 mph - N/A   Clear
3:35 AM 20.1 °F 15.2 °F 17.4 °F 89% 30.22 in 10.0 mi East 3.5 mph - N/A   Clear
3:55 AM 20.5 °F 14.0 °F 17.8 °F 89% 30.22 in 10.0 mi East 4.6 mph - N/A   Clear
4:15 AM 19.2 °F 12.5 °F 16.7 °F 90% 30.22 in 10.0 mi SE 4.6 mph - N/A   Clear
4:35 AM 19.6 °F 11.7 °F 17.2 °F 91% 30.21 in 10.0 mi SE 5.8 mph - N/A   Clear
4:55 AM 20.1 °F 11.3 °F 17.2 °F 89% 30.21 in 10.0 mi SE 6.9 mph - N/A   Clear
5:15 AM 19.8 °F 11.9 °F 16.7 °F 88% 30.21 in 10.0 mi ESE 5.8 mph - N/A   Clear
5:35 AM 20.1 °F 11.3 °F 17.1 °F 88% 30.22 in 10.0 mi ESE 6.9 mph - N/A   Clear
5:55 AM 19.9 °F 10.1 °F 16.7 °F 87% 30.21 in 10.0 mi ESE 8.1 mph - N/A   Clear
6:15 AM 19.8 °F 9.9 °F 16.5 °F 87% 30.21 in 10.0 mi ESE 8.1 mph - N/A   Clear
6:35 AM 19.4 °F 9.5 °F 16.2 °F 87% 30.21 in 10.0 mi ESE 8.1 mph - N/A   Clear
6:55 AM 19.2 °F 10.2 °F 16.0 °F 87% 30.21 in 10.0 mi ESE 6.9 mph - N/A   Clear
7:15 AM 19.4 °F 8.6 °F 16.2 °F 87% 30.21 in 10.0 mi ESE 9.2 mph - N/A   Clear
7:35 AM 19.2 °F 9.3 °F 16.2 °F 88% 30.22 in 10.0 mi ESE 8.1 mph - N/A   Clear
7:55 AM 19.4 °F 7.9 °F 16.3 °F 88% 30.21 in 10.0 mi ESE 10.4 mph - N/A   Clear
8:15 AM 19.6 °F 8.9 °F 16.3 °F 87% 30.22 in 10.0 mi ESE 9.2 mph - N/A   Clear
8:35 AM 20.3 °F 7.7 °F 16.5 °F 85% 30.22 in 10.0 mi ESE 12.7 mph - N/A   Clear
8:55 AM 21.0 °F 8.6 °F 16.7 °F 83% 30.21 in 10.0 mi SE 12.7 mph - N/A   Clear
9:15 AM 22.1 °F 8.9 °F 17.6 °F 83% 30.22 in 10.0 mi SE 15.0 mph - N/A   Clear
9:35 AM 23.4 °F 11.6 °F 18.7 °F 82% 30.21 in 10.0 mi SE 12.7 mph - N/A   Clear
9:55 AM 25.5 °F 12.4 °F 20.3 °F 81% 30.20 in 10.0 mi SE 17.3 mph - N/A   Clear
10:15 AM 27.1 °F 14.9 °F 21.7 °F 80% 30.20 in 10.0 mi SE 16.1 mph - N/A   Clear
10:35 AM 28.9 °F 16.9 °F 22.8 °F 78% 30.20 in 10.0 mi SE 17.3 mph - N/A   Clear
10:55 AM 31.1 °F 20.5 °F 23.9 °F 75% 30.20 in 10.0 mi SSE 15.0 mph - N/A   Clear
11:15 AM 33.3 °F 23.2 °F 25.5 °F 73% 30.19 in 10.0 mi SSE 15.0 mph - N/A   Clear
11:35 AM 35.6 °F 25.5 °F 25.9 °F 68% 30.19 in 10.0 mi South 17.3 mph - N/A   Clear
11:55 AM 36.3 °F 27.1 °F 25.7 °F 65% 30.17 in 10.0 mi SSE 15.0 mph - N/A   Clear
12:15 PM 36.7 °F 28.0 °F 26.1 °F 65% 30.15 in 10.0 mi SSE 13.8 mph 20.7 mph N/A   Clear
12:35 PM 39.6 °F 31.0 °F 26.6 °F 60% 30.13 in 10.0 mi SSE 16.1 mph - N/A   Clear
12:55 PM 41.0 °F 32.2 °F 26.8 °F 57% 30.12 in 10.0 mi SSE 18.4 mph - N/A   Clear
1:15 PM 42.1 °F 33.9 °F 26.8 °F 55% 30.10 in 10.0 mi SSE 17.3 mph - N/A   Clear
1:35 PM 43.5 °F 35.8 °F 27.9 °F 54% 30.09 in 10.0 mi SSE 17.3 mph - N/A   Clear
1:55 PM 44.2 °F 37.0 °F 27.1 °F 51% 30.08 in 10.0 mi SSE 16.1 mph - N/A   Clear
2:15 PM 46.6 °F - 27.5 °F 47% 30.07 in 10.0 mi SSE 16.1 mph - N/A   Clear
2:35 PM 48.6 °F - 27.5 °F 44% 30.07 in 10.0 mi SSE 16.1 mph - N/A   Clear
2:55 PM 49.3 °F - 27.3 °F 43% 30.06 in 10.0 mi SSE 15.0 mph - N/A   Clear
3:15 PM 49.6 °F - 28.4 °F 44% 30.04 in 10.0 mi SE 16.1 mph - N/A   Clear
3:35 PM 50.4 °F - 28.8 °F 43% 30.04 in 10.0 mi SE 11.5 mph - N/A   Clear
3:55 PM 51.1 °F - 28.0 °F 41% 30.02 in 10.0 mi SE 12.7 mph - N/A   Clear
4:15 PM 50.2 °F - 28.2 °F 43% 30.02 in 10.0 mi SSE 10.4 mph - N/A   Clear
4:35 PM 52.7 °F - 25.5 °F 35% 30.02 in 10.0 mi SSE 11.5 mph - N/A   Clear
4:55 PM 50.7 °F - 25.5 °F 38% 30.01 in 10.0 mi SSE 11.5 mph - N/A   Clear
5:15 PM 48.7 °F - 25.3 °F 40% 30.01 in 10.0 mi SSE 11.5 mph - N/A   Clear
5:35 PM 44.4 °F 39.0 °F 26.1 °F 49% 30.00 in 10.0 mi SE 10.4 mph - N/A   Clear
5:55 PM 41.9 °F 34.6 °F 26.4 °F 54% 30.00 in 10.0 mi SE 13.8 mph - N/A   Clear
6:15 PM 40.1 °F 32.4 °F 27.5 °F 61% 30.00 in 10.0 mi SE 13.8 mph - N/A   Clear
6:35 PM 39.2 °F 31.2 °F 27.5 °F 63% 30.00 in 10.0 mi SE 13.8 mph - N/A   Clear
6:55 PM 37.9 °F 30.5 °F 27.5 °F 66% 30.01 in 10.0 mi SE 11.5 mph - N/A   Clear
7:15 PM 37.2 °F 30.0 °F 27.5 °F 68% 30.01 in 10.0 mi SE 10.4 mph - N/A   Clear
7:35 PM 36.7 °F 29.9 °F 27.5 °F 69% 30.01 in 10.0 mi SE 9.2 mph - N/A   Clear
7:55 PM 36.0 °F 29.0 °F 27.9 °F 72% 30.01 in 10.0 mi SSE 9.2 mph - N/A   Clear
8:15 PM 39.2 °F 30.8 °F 27.5 °F 63% 30.00 in 10.0 mi SSE 15.0 mph - N/A   Clear
8:35 PM 39.2 °F 31.2 °F 27.1 °F 62% 30.00 in 10.0 mi SSE 13.8 mph - N/A   Clear
8:55 PM 38.8 °F 30.4 °F 27.0 °F 62% 30.00 in 10.0 mi SSE 15.0 mph - N/A   Clear
9:15 PM 38.5 °F 29.9 °F 27.0 °F 63% 30.00 in 10.0 mi SSE 15.0 mph - N/A   Clear
9:35 PM 38.3 °F 30.1 °F 26.6 °F 63% 30.00 in 10.0 mi SSE 13.8 mph - N/A   Clear
9:55 PM 38.3 °F 30.5 °F 26.6 °F 63% 30.00 in 10.0 mi SSE 12.7 mph - N/A   Clear
10:15 PM 38.1 °F 30.2 °F 26.8 °F 64% 30.00 in 10.0 mi SSE 12.7 mph - N/A   Clear
10:35 PM 37.9 °F 30.5 °F 26.8 °F 64% 30.00 in 10.0 mi SSE 11.5 mph - N/A   Clear
10:55 PM 37.6 °F 29.1 °F 26.6 °F 65% 29.99 in 10.0 mi SSE 13.8 mph - N/A   Clear
11:15 PM 37.8 °F 29.0 °F 26.6 °F 64% 29.99 in 10.0 mi SSE 15.0 mph - N/A   Mostly Cloudy
11:35 PM 38.3 °F 29.7 °F 26.6 °F 63% 29.99 in 10.0 mi SSE 15.0 mph - N/A   Overcast
11:55 PM 38.3 °F 29.7 °F 26.6 °F 63% 29.98 in 10.0 mi SSE 15.0 mph - N/A   Overcast